St Hubert Airport

Jump to: basic info | weather | frequencies | runways | comments

Related pages: nearby airports | nearby navaids | notams | map

Basic information (top)

Codes: EBSH
Location: lon 50.035900, lat 5.404250, elev 1,930 ft / 588 m msl
Status: small_airport

Weather (top)

Current conditions for Florennes Air Base 32nm (59km) WNW (rec'd 2014/12/21 23:25Z):

EBFS 212325Z AUTO 22014KT 7000 SCT010/// BKN013/// OVC016/// 06/04 Q1027 GRN

Airport forecast for Florennes Air Base 32nm (59km) WNW (rec'd 2014/12/02 19:12Z):

TAF EBFS 021541Z 0219/0307 02007KT 0500 FZFG -SN SCT001 BKN002 PROB40 
      TEMPO 0219/0222 1200 BR SCT002 BKN004

Frequencies (top)

Verify before use: may be inaccurate or out of date.

INFO: 122.175 MHz ()

Runways (top)

05/23: 1,969 x 623 ft (600 x 190 m) — grass — not lighted

14/32: 2,625 x 492 ft (800 x 150 m) — grass — not lighted

Latest comments (top)

Airport web site: http://www.sainthubert-airport.com/ R ... [read]

More... (top)

See also NOTAMs and nearby airports and navaids, or visit the St Hubert Airport page at the main OurAirports website..